This is the latest recevied weather packets stored in our database for station/object KB9YVI-11. If no packets are shown the sender has not sent any weather packets the latest 10 day(s).
| Time | Temp. | Humidity | Pressure | Rain* | Wind** | Luminosity | Snow |
|---|---|---|---|---|---|---|---|
| 1777673144 | 13.33° C | 78% | 0 hPa | 0 mm | - | - | - |
| 1777672544 | 13.33° C | 78% | 0 hPa | 0 mm | - | - | - |
| 1777672244 | 12.78° C | 77% | 0 hPa | 0 mm | - | - | - |
| 1777671644 | 13.33° C | 79% | 0 hPa | 0 mm | - | - | - |
| 1777671043 | 13.33° C | 82% | 0 hPa | 0 mm | - | - | - |
| 1777670744 | 13.33° C | 80% | 0 hPa | 0 mm | - | - | - |
| 1777670444 | 13.33° C | 81% | 0 hPa | 0 mm | - | - | - |
| 1777670144 | 13.33° C | 82% | 0 hPa | 0 mm | - | - | - |
| 1777669544 | 13.89° C | 79% | 0 hPa | 0 mm | - | - | - |
| 1777669244 | 14.44° C | 79% | 0 hPa | 0 mm | - | - | - |
| 1777668944 | 14.44° C | 78% | 0 hPa | 0 mm | - | - | - |
| 1777668644 | 13.89° C | 77% | 0 hPa | 0 mm | - | - | - |
| 1777668344 | 13.89° C | 80% | 0 hPa | 0 mm | - | - | - |
| 1777667744 | 13.89° C | 80% | 0 hPa | 0 mm | - | - | - |
| 1777667443 | 13.33° C | 81% | 0 hPa | 0 mm | - | - | - |
| 1777667144 | 13.33° C | 80% | 0 hPa | 0 mm | - | - | - |
| 1777666844 | 12.78° C | 81% | 0 hPa | 0 mm | - | - | - |
| 1777666244 | 12.22° C | 82% | 0 hPa | 0 mm | - | - | - |
| 1777665944 | 12.22° C | 81% | 0 hPa | 0 mm | - | - | - |
| 1777665644 | 12.78° C | 81% | 0 hPa | 0 mm | - | - | - |
| 1777665344 | 12.78° C | 83% | 0 hPa | 0 mm | - | - | - |
| 1777665044 | 12.78° C | 83% | 0 hPa | 0 mm | - | - | - |
| 1777664744 | 12.78° C | 83% | 0 hPa | 0 mm | - | - | - |
| 1777664144 | 13.33° C | 80% | 0 hPa | 0 mm | - | - | - |
| 1777663843 | 12.78° C | 82% | 0 hPa | 0 mm | - | - | - |
* Rain latest hour (hover to see other rain measurements)
** Current wind speed in m/s (hover to see current wind gust speed)